Location: ????????
(55.0559°N, 39.1270°E)
Time: 04:51:25
(UTC+00:00)

ADEOS II - Visible Passes

Search period start: 15 February 2026 00:00
Search period end: 25 February 2026 00:00
Orbit: 793 x 796 km, 98.8° (Epoch: 13 February)

Date Brightness Start Highest point End Pass type
(mag) Time Alt. Az. Time Alt. Az. Time Alt. Az.
15 Feb 4.1 00:04:08 10° NNE 00:06:17 24° NE 00:06:17 24° NE visible
15 Feb 3.2 01:43:52 10° N 01:47:06 31° NNW 01:47:06 31° NNW visible
15 Feb 4.1 03:25:52 10° NNW 03:26:54 11° NW 03:27:55 10° NW visible
15 Feb 4.5 23:36:04 10° NNE 23:37:44 18° NE 23:37:44 18° NE visible
16 Feb 3.1 01:15:21 10° N 01:18:32 36° N 01:18:32 36° N visible
16 Feb 3.8 02:56:11 10° NNW 02:59:04 15° NW 02:59:22 15° NW visible
16 Feb 4.8 23:08:20 10° NE 23:09:10 13° NE 23:09:10 13° NE visible
17 Feb 3.3 00:46:56 10° NNE 00:49:58 36° NNE 00:49:58 36° NNE visible
17 Feb 3.5 02:27:16 10° N 02:30:48 21° NW 02:30:48 21° NW visible
18 Feb 3.7 00:18:37 10° NNE 00:21:25 31° NE 00:21:25 31° NE visible
18 Feb 3.1 01:58:34 10° N 02:02:14 29° NW 02:02:14 29° NW visible
18 Feb 4.1 23:50:28 10° NNE 23:52:51 24° NE 23:52:51 24° NE visible
19 Feb 2.9 01:30:00 10° N 01:33:39 38° NNW 01:33:39 38° NNW visible
19 Feb 3.9 03:11:14 10° NNW 03:13:24 13° NW 03:14:28 12° NW visible
19 Feb 4.5 23:22:32 10° NE 23:24:17 17° NE 23:24:17 17° NE visible
20 Feb 2.9 01:01:31 10° NNE 01:05:06 44° N 01:05:06 44° N visible
20 Feb 3.6 02:42:05 10° N 02:45:31 18° NW 02:45:55 18° NW visible
20 Feb 4.9 22:55:06 10° NE 22:55:43 12° ENE 22:55:43 12° ENE visible
21 Feb 3.2 00:33:09 10° NNE 00:36:33 41° NNE 00:36:33 41° NNE visible
21 Feb 3.2 02:13:18 10° N 02:17:21 26° NW 02:17:21 26° NW visible
22 Feb 3.7 00:04:54 10° NNE 00:07:59 32° NE 00:07:59 32° NE visible
22 Feb 2.8 01:44:39 10° N 01:48:48 36° NW 01:48:48 36° NW visible
22 Feb 4.1 03:26:40 10° NNW 03:27:41 11° NW 03:28:43 10° NW visible
22 Feb 4.2 23:36:51 10° NNE 23:39:25 23° ENE 23:39:25 23° ENE visible
23 Feb 2.6 01:16:08 10° N 01:20:13 48° NNW 01:20:13 48° NNW visible
23 Feb 3.8 02:56:58 10° NNW 02:59:51 15° NW 03:01:03 14° WNW visible
23 Feb 4.6 23:09:06 10° NE 23:10:51 16° ENE 23:10:51 16° ENE visible
24 Feb 2.6 00:47:42 10° NNE 00:51:40 53° NNE 00:51:40 53° NNE visible
24 Feb 3.4 02:28:03 10° N 02:31:55 21° NW 02:32:29 21° WNW visible
